User: anonymous
Location: Unspecified
(0.0000°N, 0.0000°E)
Time: 20:19:02
(UTC+00:00)
Language:

ASTRA 1KR - Orbit

View from above orbital plane
View from above orbital plane
View from above satellite
View from above satellite

Ground track
Ground track

The orbit data is extracted from the following two-line orbital elements,

1 29055U 06012A   14274.09589484  .00000105  00000-0  00000+0 0  1497
2 29055 000.0734 275.1286 0004460 296.5898 211.7697 01.00271837 30903
Epoch (UTC): 01 October 2014 02:18:05
Eccentricity: 0.0004460
inclination: 0.0734°
perigee height: 35767 km
apogee height: 35805 km
right ascension of ascending node: 275.1286°
argument of perigee: 296.5898°
revolutions per day: 1.00271837
mean anomaly at epoch: 211.7697°
orbit number at epoch: 3090

The dashed part of the orbit path shows where the satellite is in the earth's shadow,  

DLR